Regional Weather Roundup
Issued by NWS Upton, NY

Current Version | Previous Version | Text Only | Print | Product List | Glossary On
Versions: 1 2 3 4 5 6 7 8 9 10 11 12 13 14 15 16 17 18 19 20 21 22 23 24 25 26 27
000
ASUS41 KOKX 192005
RWROKX

Regional Weather Roundup
National Weather Service New York NY
400 PM EDT THU APR 19 2018

Note: "FAIR" indicates few or no clouds below 12,000 feet with no
significant weather and/or obstructions to visibility.

NYZ071-072-176-178-NJZ106-104-192100-
New York City Metro Area

CITY           SKY/WX    TMP DP  RH WIND       PRES   REMARKS
Central Park   PTSUNNY   44  36  73 NW9G17    29.80S
Bronx Bot Gard   N/A     43  34  70 N8        29.77R
Bronx Lehman C   N/A     43  36  75 NW5         N/A
LaGuardia Arpt PTSUNNY   44  36  73 NW14      29.77S
Queens College   N/A     43  36  75 NW8         N/A
Kennedy Intl   LGT RAIN  43  39  86 NW15      29.79R
Breezy Point     N/A     43 N/A N/A NW13G20     N/A
Brooklyn Coll    N/A     43  34  70 NW10        N/A
Staten Island    N/A     43  36  75 NW10        N/A
Newark/Liberty PTSUNNY   46  38  73 NW12      29.79S
Teterboro      FAIR      46  36  68 NW9       29.77S
$$

NYZ177-179-078>081-192100-
Long Island New York

CITY           SKY/WX    TMP DP  RH WIND       PRES   REMARKS
Jones Beach      N/A     43 N/A N/A NW16        N/A
Wantagh          N/A     43  37  81 NW10        N/A
Hempstead        N/A     43  39  87 W3        29.81R
Matinecock Pt    N/A     43 N/A N/A NW15        N/A
Farmingdale    LGT RAIN  43  39  86 NW12      29.77R
MacArthur/ISP  LGT RAIN  43  40  89 NW12      29.76S FOG
Stony Brook      N/A     41  37  87 NW9         N/A
Shirley        LGT RAIN  43  40  89 NW12      29.77R
Mt Sinai Harb    N/A     41 N/A N/A NW7G13      N/A
Westhampton    LGT RAIN  43  39  86 NW15      29.78R
East Hampton   LGT RAIN  40  38  91 NW8G17    29.74R WCI  35
Southold         N/A     41  39  93 NW8         N/A
Montauk          N/A     43  40  89 NW10      29.75R
$$

NYZ052-065-067-192100-
Hudson Valley

CITY           SKY/WX    TMP DP  RH WIND       PRES   REMARKS
White Plains   FAIR      42  36  79 NW12      29.76R
Larchmont Harb   N/A     41 N/A N/A W12         N/A
Croton On Huds   N/A     45 N/A N/A SW10        N/A
Somers           N/A     41  37  87 N6          N/A
Brewster         N/A     39  36  87 N9          N/A  WCI  33
Newburgh       CLOUDY    43  36  75 NW12      29.77S
Montgomery     LGT RAIN  43  33  68 NW14G23   29.77R
Otisville        N/A     41  32  70 NW9         N/A
Warwick          N/A     43  32  65 NW16        N/A
Suffern          N/A     43  32  65 NW10        N/A
Poughkeepsie   CLOUDY    42  36  79 W5        29.76F
Albany         CLOUDY    40  31  70 W17G29    29.79R WCI  31
$$

NJZ001-105-106-008-010-013-015-019>022-104-192100-
New Jersey

CITY           SKY/WX    TMP DP  RH WIND       PRES   REMARKS
Newark/Liberty PTSUNNY   46  38  73 NW12      29.79S
Teterboro      FAIR      46  36  68 NW9       29.77S
Caldwell       LGT RAIN  43  36  76 NW10      29.79S
Somerville     LGT RAIN  43  36  76 N10       29.80R
Linden         CLOUDY    45  37  72 N9        29.81R
Perth Amboy      N/A     43 N/A N/A NW13G18     N/A
Sussex         PTSUNNY   43  34  70 NW9G20    29.79R
Andover          N/A     43  33  68 N14G23    29.79R
Trenton        CLOUDY    45  34  65 NW8G24    29.82R
Millville      LGT RAIN  48  38  68 NW15G23   29.83R
Atlantic City  LGT RAIN  48  43  82 NW21G32   29.81R
Wrightstown    FAIR      44  38  79 NW9       29.80
Toms River     LGT RAIN  44  40  85 NW14      29.82R
Belmar         LGT RAIN  44  39  82 W12       29.81R
$$

PAZ047>061-062-071-192100-
Eastern Pennsylvania

CITY           SKY/WX    TMP DP  RH WIND       PRES   REMARKS
Philadelphia   CLOUDY    47  31  53 NW24G31   29.86R
Allentown      PTSUNNY   45  32  60 W13       29.84R
Scranton       CLOUDY    40  31  70 NW17G24   29.83R WCI  31
$$

CTZ002-004>006-009-010-012-RIZ004-006-007-MAZ004-011-015-192100-
Southern New England

 In CT

CITY           SKY/WX    TMP DP  RH WIND       PRES   REMARKS
Bradley Intl   LGT RAIN  43  35  73 NW10      29.74R
Hartford       CLOUDY    43  36  76 W8        29.75R
Danbury        LGT RAIN  40  36  86 NW8       29.76S FOG     WCI  34
Wtrbury/Oxford LGT RAIN  39  36  89 W8        29.74S WCI  33
Norwalk Harbor   N/A     39 N/A N/A NW12        N/A  WCI  32
Bridgeport     LGT RAIN  43  37  79 NW9       29.75S
Meriden        LGT RAIN  42  36  79 W8        29.75R
New Haven      LGT RAIN  43  38  82 NW8       29.76R FOG
Chester        LGT RAIN  41  37  87 NW10      29.74R
Groton         LGT RAIN  42  40  92 NW10      29.74R
Willimantic    LGT RAIN  42  37  82 VRB7      29.74R

 In RI

CITY           SKY/WX    TMP DP  RH WIND       PRES   REMARKS
Providence     DRIZZLE   43  39  86 W8        29.72R
Block Island   CLOUDY    41  40  96 W8        29.73R
Westerly       LGT RAIN  43  40  89 NW5       29.74R FOG

In MA

CITY           SKY/WX    TMP DP  RH WIND       PRES   REMARKS
Boston         LGT RAIN  42  36  79 W5        29.69F
Worcester      LGT RAIN  39  35  86 W13       29.68R WCI  31
Westfield      LGT RAIN  42  35  76 W8G20     29.73R
Provincetown   LGT RAIN  37  35  92 NW7       29.71R WCI  32
Nantucket      LGT RAIN  41  41 100 N9        29.70R
$$

ANZ330-335-338-340-345-350-353-355-192100-
Coastal Marine Observations


STATION/POSITION TIME  SKY/WX   TEMP    WIND        PRES    VSBY  WAVE
                                AIR SEA DIR/SP/G                  HT/PER
                 (UTC)          (F)     (DEG/KT/KT) (MB)    (MI)  (FT/S)
NY Harb Entrance 1950            43 45  300/ 14/ 17 1008.7          2/15
20 S Fire Island 1850            43 42  300/  8/ 10 1007.8          2/ 9
23 SSW Montauk P 1950            42 42  290/ 12/ 14 1007.1          2/ 8
15 E Barnegat Li 1930               44                N/A           3/ 8
Hudson Canyon    1950            44 45  340/ 10/ 12 1007.3          4/ 5
Kings Point      1942            41 44  350/ 13/ 15 1009.8
Execution Rocks  NOT AVBL
Western LI Sound NOT AVBL
Central LI Sound 1930            41     290/  8/ 10   N/A           0
Robbins Reef     1942            43     310/ 11/ 15 1009.1
$$


>>>>>>>>>>>>>>>>>>>>>>>>>>>> KEY <<<<<<<<<<<<<<<<<<<<<<<<<<<
>                                                          <
>     SKY/WX - Sky Condition/Present Weather               <
>     TMP    - Temperature in Fahrenheit                   <
>     DP     - Dew Point in Fahrenheit                     <
>     RH     - Relative Humidity in Percent                <
>     WIND   - Direction (from) and Speed in MPH           <
>     PRES   - Mean Sea Level Pressure (inches of Hg)      <
>     WCI    - Wind Chill Index                            <
>     VSB    - Visibility in Miles                         <
>     HX     - Heat Index                                  <
>     TC     - Temperature in Celsius                      <
>     VRB    - Varibale Wind Direction                     <
>                                                          <
>>>>>>>>>>>>>>>>>>>>>>>>>>>> KEY <<<<<<<<<<<<<<<<<<<<<<<<<<<




USA.gov is the U.S. government's official web portal to all federal, state and local government web resources and services.